Deptford, New Jersey, United States
Lat: 39.83N, Lon: 75.13W
Wx Zone: NJZ017
Local Info
Past Weather Observations for Sunday, August 23, 2015

NOTE: This archive is for the closest National Weather Service station to Deptford. Information may differ from the station used for current weather conditions.

Click here for Long-term Archive

Time Weather Temperature Dewpoint Humidity Pressure Winds Precip Visibility
23:54
Partly Cloudy
70°F / 21°C 59°F / 15°C 69% 29.95 in
(1014 mb)
S 3.5 mph
(S 6 kph)
- 10SM
22:54
Partly Cloudy
75°F / 24°C 57°F / 14°C 54% 29.95 in
(1014 mb)
Calm - 10SM
21:54
Partly Cloudy
75°F / 24°C 55°F / 13°C 50% 29.95 in
(1014 mb)
NNW 4.6 mph
(NNW 7 kph)
- 10SM
18:54
Mostly Cloudy
81°F / 27°C 55°F / 13°C 42% 29.95 in
(1014 mb)
NW 4.6 mph
(NW 7 kph)
- 10SM
17:54
Mostly Cloudy
82°F / 28°C 52°F / 11°C 35% 29.92 in
(1013 mb)
NW 5.8 mph
(NW 9 kph)
- 10SM
16:54
Mostly Cloudy
84°F / 29°C 48°F / 9°C 29% 29.95 in
(1014 mb)
SSW 5.8 mph
(SSW 9 kph)
- 10SM
15:54
Mostly Cloudy
84°F / 29°C 50°F / 10°C 31% 29.95 in
(1014 mb)
SW 6.9 mph
(SW 11 kph)
- 10SM
14:54
Mostly Cloudy
84°F / 29°C 52°F / 11°C 33% 29.95 in
(1014 mb)
SW 8.1 mph
(SW 13 kph)
- 10SM
13:54
Mostly Cloudy
84°F / 29°C 52°F / 11°C 33% 29.98 in
(1015 mb)
SE 4.6 mph
(SE 7 kph)
- 10SM
12:54
Mostly Cloudy
82°F / 28°C 50°F / 10°C 32% 29.98 in
(1015 mb)
Variable 4.6 mph
(Variable 7 kph)
- 10SM
11:54
Mostly Cloudy
84°F / 29°C 52°F / 11°C 33% 29.98 in
(1015 mb)
SE 5.8 mph
(SE 9 kph)
- 10SM
10:54
Mostly Cloudy
82°F / 28°C 54°F / 12°C 37% 30.01 in
(1016 mb)
Variable 6.9 mph
(Variable 11 kph)
- 10SM
09:54
Mostly Cloudy
81°F / 27°C 54°F / 12°C 39% 30.04 in
(1017 mb)
Calm - 10SM
08:54
Mostly Cloudy
79°F / 26°C 55°F / 13°C 45% 30.04 in
(1017 mb)
N 8.1 mph
(N 13 kph)
- 10SM
07:54
Mostly Cloudy
73°F / 23°C 55°F / 13°C 53% 30.04 in
(1017 mb)
NNW 4.6 mph
(NNW 7 kph)
- 10SM
06:54
Partly Cloudy
70°F / 21°C 55°F / 13°C 60% 30.04 in
(1017 mb)
NNW 4.6 mph
(NNW 7 kph)
- 10SM
05:54
Partly Cloudy
66°F / 19°C 55°F / 13°C 68% 30.04 in
(1017 mb)
N 3.5 mph
(N 6 kph)
- 10SM
04:54
Partly Cloudy
66°F / 19°C 54°F / 12°C 64% 30.04 in
(1017 mb)
NNW 4.6 mph
(NNW 7 kph)
- 10SM
03:54
Partly Cloudy
66°F / 19°C 54°F / 12°C 64% 30.04 in
(1017 mb)
N 6.9 mph
(N 11 kph)
- 10SM
02:54
Partly Cloudy
66°F / 19°C 55°F / 13°C 68% 30.04 in
(1017 mb)
NNW 5.8 mph
(NNW 9 kph)
- 10SM
01:54
Clear
70°F / 21°C 55°F / 13°C 60% 30.04 in
(1017 mb)
NW 4.6 mph
(NW 7 kph)
- 10SM
00:54
Clear
70°F / 21°C 55°F / 13°C 60% 30.06 in
(1018 mb)
NNW 6.9 mph
(NNW 11 kph)
- 10SM
Time Weather Temperature Dewpoint Humidity Pressure Winds Precip Visibility


Weather for websites

WeatherForYou.com, LLC is not responsible for any damages or problems caused by this service. Current weather conditions are obtained from the closest station including government and personal stations which may have varying degrees of accuracy. Weather forecasts are derived from the NOAA NDFD. Like all things, this site belongs to Jesus Christ... He just trusts us to maintain it. If you have any questions or comments email webmaster@weatherforyou.com

Copyright © 2015, WeatherForYou.com LLC. All rights reserved.